Regional Weather Roundup
Issued by NWS Grand Forks, ND

Home | Current Version | Previous Version | Graphics & Text | Print | Product List | Glossary On
Versions: 1 2 3 4 5 6 7 8 9 10 11 12 13 14 15 16 17 18 19 20 21 22 23 24 25 26 27 28 29 30 31 32 33 34 35 36 37 38 39 40 41 42 43 44 45 46 47 48 49 50
000
ASUS43 KFGF 291210
RWRFGF
PRAIRIE TO PINES  WEATHER ROUNDUP
NATIONAL WEATHER SERVICE EASTERN NORTH DAKOTA/GRAND FORKS ND
700 AM CDT WED JUL 29 2015

 **SATELLITE DATA USED TO AUGMENT SKY COVER AT AUTOMATED STATIONS**
 *****  WEATHER ACROSS EASTERN NORTH DAKOTA  *****

CITY           SKY/WX    TMP DP  RH WIND       PRES   REMARKS
GRAND FORKS    CLOUDY    65  55  70 W22G37    29.65R
6HR MIN TEMP:  64; 6HR MAX TEMP:  65;

GRAND FRKS AFB CLOUDY    65  55  70 NW22G39   29.66R
GRAND FRKS NWS   N/A     64 N/A N/A W26         N/A
DEVILS LAKE    MOCLDY    64  48  55 W25G37    29.72R
6HR MIN TEMP:  61; 6HR MAX TEMP:  64;

FARGO          CLOUDY    65  51  60 W23G29    29.77R
WAHPETON ARPT  SUNNY     63  46  55 W21G30    29.85R
$$

 ***** WEATHER ACROSS CENTRAL AND WESTERN NORTH DAKOTA  *****

CITY           SKY/WX    TMP DP  RH WIND       PRES   REMARKS
BISMARCK       CLEAR     61  47  59 W21G29    29.97R
6HR MIN TEMP:  58; 6HR MAX TEMP:  63;

MINOT          CLOUDY    61  51  70 W17       29.85R
6HR MIN TEMP:  61; 6HR MAX TEMP:  64; 6HR PCP: TRACE;

JAMESTOWN      CLEAR     63  50  62 W22G32    29.86R
6HR MIN TEMP:  61; 6HR MAX TEMP:  64;

MINOT AFB      PTCLDY    62  56  81 W14G22    29.84R
GARRISON         N/A     59  52  77 W13       29.92R
WILLISTON      MOCLDY    59  48  67 W18       29.98R
6HR MIN TEMP:  58; 6HR MAX TEMP:  62;

DICKINSON      PTCLDY    56  43  61 W14       30.05R
6HR MIN TEMP:  53; 6HR MAX TEMP:  60;

HETTINGER      CLEAR     52  41  66 W10       30.12R
6HR MIN TEMP:  50; 6HR MAX TEMP:  54;

$$

 *****  OTHER AIRPORT OBSERVATIONS IN OUR AREA  *****

CITY           SKY/WX    TMP DP  RH WIND       PRES   REMARKS
WALHALLA       FAIR      63  59  88 MISG      29.58R
GRAFTON AIRPOR CLOUDY    64  57  77 W25G33    29.61R
VALLEY CITY AR NOT AVBL
CANDO          NOT AVBL
CAVALIER APRT  CLOUDY    63  55  77 W18G30    29.58R
GWINNER        FAIR      63  48  59 W16G23    29.89S
SHEYENNE NWR     N/A     64  49  57 W20       29.95S
ROLLA          FAIR      59  54  82 W20G32    29.72R
 ***** THE ABOVE OBSERVATIONS ARE NON NWS ARE NOT QUALITY
       CONTROLLED AND MAY MIS-REPORT RAIN FOR SNOW...
$$

  *****  WEATHER ACROSS NORTHERN MINNESOTA  *****

CITY           SKY/WX    TMP DP  RH WIND       PRES   REMARKS
FLAG ISLAND    CLOUDY    61  57  88 SW18G25   29.43R
WARROAD        CLOUDY    61  55  82 SW14G24   29.50R FOG
ROSEAU         CLOUDY    63  57  82 W17G28    29.51R
HALLOCK        CLOUDY    63  57  82 W18G28    29.55R
THF RVR FALLS  CLOUDY    63  54  72 W16G26    29.62R
6HR MIN TEMP:  61; 6HR MAX TEMP:  63;

BAUDETTE       CLOUDY    60  56  86 SW15G25   29.52R
6HR MIN TEMP:  59; 6HR MAX TEMP:  68;

WASKISH        CLOUDY    64  57  77 SW29G41   29.59R
CROOKSTON      CLOUDY    64  55  72 W23G33    29.66R
STEPHEN NDAWN    N/A     63  57  82 W20         N/A
GREENBUSH NDAW   N/A     63  57  82 W20         N/A
$$
  *****  WEATHER ACROSS CENTRAL AND WEST MINNESOTA  *****

CITY           SKY/WX    TMP DP  RH WIND       PRES   REMARKS
FOSSTON        CLOUDY    59  52  77 SW20G28   29.68R
BEMIDJI        CLOUDY    62  51  68 W26G32    29.67S
PARK RAPIDS    CLOUDY    64  50  60 W18G31    29.74R
6HR MIN TEMP:  64; 6HR MAX TEMP:  67;

ELBOW LAKE     FAIR      61  49  65 W17       29.87R
WADENA         CLEAR     63  50  63 W22G33    29.79S
DETROIT LAKES  CLOUDY    63  50  63 W21G33    29.77S
MOORHEAD       MOCLDY    64  52  63 W18G29    29.79R
FERGUS FALLS   CLEAR     63  50  63 W18G28    29.83S
MORRIS MN      CLEAR     63  52  67 SW16      29.91R
STAPLES        CLEAR     63  48  59 W17G24    29.80S
$$
  *****  WEATHER ELSEWHERE ACROSS MINNESOTA  *****

CITY           SKY/WX    TMP DP  RH WIND       PRES   REMARKS
DULUTH         PTSUNNY   65  49  56 W23G37    29.73R
6HR MIN TEMP:  63; 6HR MAX TEMP:  69;

INTRNTL FALLS  LGT RAIN  62  55  77 SW18G25   29.55R
6HR MIN TEMP:  62; 6HR MAX TEMP:  66; 6HR PCP: TRACE;

ELY            CLOUDY    63  48  59 SW12G22   29.63F
CLOQUET        NOT AVBL
WHEATON        CLEAR     63  48  59 SW17G24   29.92R
BRAINERD       PTCLDY    64  49  57 W23G31    29.79S
6HR MIN TEMP:  64; 6HR MAX TEMP:  69;

HIBBING        CLOUDY    64  50  60 SW12G20   29.67F
6HR MIN TEMP:  64; 6HR MAX TEMP:  67;

ALEXANDRIA     CLEAR     64  49  57 W21G33    29.89R
6HR MIN TEMP:  63; 6HR MAX TEMP:  66;

SAINT CLOUD    CLEAR     65  50  58 SW12G22   29.88R
6HR MIN TEMP:  65; 6HR MAX TEMP:  69;

MINNEAPOLIS    PTCLDY    67  50  54 SW15      29.94R
6HR MIN TEMP:  66; 6HR MAX TEMP:  72;

$$

  *****  WEATHER ACROSS SOUTH DAKOTA  *****

CITY           SKY/WX    TMP DP  RH WIND       PRES   REMARKS
SIOUX FALLS    FAIR      60  51  72 VRB3      30.10R
6HR MIN TEMP:  59; 6HR MAX TEMP:  63;

BROOKINGS      CLEAR     57  46  67 SW9       30.08R
WATERTOWN      CLEAR     60  48  64 SW10      30.00R
6HR MIN TEMP:  59; 6HR MAX TEMP:  63;

HURON          CLEAR     59  48  67 SW12      30.06R
6HR MIN TEMP:  58; 6HR MAX TEMP:  64;

SISSETON         N/A     65  48  54 W23G30    29.91R
ABERDEEN       CLEAR     58  48  69 SW12      29.99R
6HR MIN TEMP:  55; 6HR MAX TEMP:  63;

MITCHELL       CLEAR     61  50  67 W12       30.10R
PIERRE         CLEAR     62  44  51 W15       30.09S
6HR MIN TEMP:  59; 6HR MAX TEMP:  66;

MOBRIDGE       CLEAR     63  45  51 NW13G22   30.03R
RAPID CITY     CLEAR     52  41  66 W5        30.24R
6HR MIN TEMP:  48; 6HR MAX TEMP:  58;

$$

  *****  SOME WEATHER IN NEARBY STATES *****

CITY           SKY/WX    TMP DP  RH WIND       PRES   REMARKS
GLASGOW MT     PTCLDY    53  46  77 CALM      30.08R
6HR MIN TEMP:  52; 6HR MAX TEMP:  58;

GREAT FALLS MT CLEAR     51  40  65 SW12      30.21R
6HR MIN TEMP:  50; 6HR MAX TEMP:  54;

CHEYENNE WY    CLEAR     47  34  60 NW5       30.37R
6HR MIN TEMP:  47; 6HR MAX TEMP:  62;

SCOTTSBLUFF NE CLEAR     49  45  86 MISG      30.30R
6HR MIN TEMP:  48; 6HR MAX TEMP:  58;

OMAHA NE       MOCLDY    63  62  97 N5        30.13R
6HR MIN TEMP:  62; 6HR MAX TEMP:  71;

DES MOINES IA  MOCLDY    72  68  87 NW6       30.07F
6HR MIN TEMP:  71; 6HR MAX TEMP:  73; 6HR PCP: TRACE;

DAVENPORT IA   CLOUDY    72  70  93 NW8       30.01S
6HR MIN TEMP:  72; 6HR MAX TEMP:  75; 6HR PCP:  0.01;

CHICAGO IL     CLOUDY    76  71  85 W8        29.94R
6HR MIN TEMP:  75; 6HR MAX TEMP:  81; 6HR PCP: TRACE;

EAU CLAIRE WI  SUNNY     66  55  67 SW9       29.92R
6HR MIN TEMP:  63; 6HR MAX TEMP:  72;

LA CROSSE WI   PTSUNNY   71  53  52 W10       29.97S
6HR MIN TEMP:  68; 6HR MAX TEMP:  77;

$$

  *****  SOME NATIONAL WEATHER *****

CITY           SKY/WX    TMP DP  RH WIND       PRES   REMARKS
LA GUARDIA NY  PTSUNNY   81  65  58 NW3       29.97S
6HR MIN TEMP:  78; 6HR MAX TEMP:  82;

RALEIGH NC     PTSUNNY   76  70  82 S5        30.03R
6HR MIN TEMP:  75; 6HR MAX TEMP:  78;

ATLANTA GA     PTSUNNY   77  70  79 NW9       30.01R
6HR MIN TEMP:  75; 6HR MAX TEMP:  79;

NEW ORLEANS LA CLOUDY    80  74  81 NW6       30.01R
6HR MIN TEMP:  79; 6HR MAX TEMP:  83;

OKLAHOMA CITY  PTCLDY    71  68  90 SE6       30.01S
6HR MIN TEMP:  69; 6HR MAX TEMP:  74;

ALBUQUERQUE NM CLOUDY    73  53  49 VRB3      30.27R
6HR MIN TEMP:  72; 6HR MAX TEMP:  75; 6HR PCP: TRACE;

SALT LAKE CITY CLEAR     54  34  46 N7        30.26S
6HR MIN TEMP:  54; 6HR MAX TEMP:  64;

LOS ANGELES CA CLOUDY    66  63  90 W3        29.91S


USA.gov is the U.S. government's official web portal to all federal, state and local government web resources and services.